| time (UTC) | temp F | wind direction | speed MPH | gust MPH | rain 1hr in | rain 24hr in | rain mn in | humidity % | barometer mb |
| 20260510160015 | 61 | 192 | 3.0 | 8.0 | 0.00 | 0.30 | 0.00 | 79 | 1011.7 |
| 20260510154520 | 62 | 36 | 1.0 | 10.0 | 0.00 | 0.32 | 0.00 | 78 | 1011.5 |
| 20260510153035 | 63 | 123 | 3.0 | 11.0 | 0.00 | 0.33 | 0.00 | 76 | 1011.6 |
| 20260510151509 | 62 | 108 | 1.0 | 6.0 | 0.00 | 0.34 | 0.00 | 77 | 1011.6 |
| 20260510150013 | 61 | 200 | 2.0 | 7.0 | 0.00 | 0.36 | 0.00 | 79 | 1011.5 |
| 20260510144528 | 61 | 112 | 2.0 | 6.0 | 0.00 | 0.38 | 0.00 | 79 | 1011.6 |
| 20260510143019 | 61 | 217 | 0.0 | 3.0 | 0.00 | 0.40 | 0.00 | 79 | 1011.6 |
| 20260510141526 | 59 | 212 | 0.0 | 2.0 | 0.00 | 0.42 | 0.00 | 83 | 1011.7 |
| 20260510134515 | 55 | 133 | 0.0 | 2.0 | 0.00 | 0.43 | 0.00 | 89 | 1011.9 |
| 20260510133019 | 55 | 191 | 0.0 | 2.0 | 0.00 | 0.43 | 0.00 | 92 | 1012.0 |
| 20260510131524 | 54 | 122 | 0.0 | 2.0 | 0.00 | 0.43 | 0.00 | 95 | 1011.9 |
| 20260510130024 | 53 | 296 | 1.0 | 2.0 | 0.00 | 0.44 | 0.00 | 97 | 1011.9 |
| 20260510124515 | 52 | 307 | 0.0 | 2.0 | 0.00 | 0.45 | 0.00 | 97 | 1012.0 |
| 20260510123017 | 51 | 287 | 0.0 | 0.0 | 0.00 | 0.45 | 0.00 | 97 | 1011.8 |
| 20260510121523 | 51 | 287 | 0.0 | 0.0 | 0.00 | 0.45 | 0.00 | 97 | 1011.8 |
| 20260510120032 | 51 | 287 | 0.0 | 2.0 | 0.00 | 0.45 | 0.00 | 97 | 1011.9 |
| 20260510114512 | 50 | 290 | 0.0 | 0.0 | 0.00 | 0.45 | 0.00 | 97 | 1012.0 |
| 20260510113020 | 50 | 290 | 0.0 | 0.0 | 0.00 | 0.46 | 0.00 | 97 | 1012.0 |
| 20260510111520 | 50 | 290 | 0.0 | 2.0 | 0.00 | 0.46 | 0.00 | 97 | 1011.9 |
| 20260510110033 | 50 | 300 | 0.0 | 0.0 | 0.00 | 0.48 | 0.00 | 1011.7 | |
| 20260510104524 | 49 | 300 | 0.0 | 2.0 | 0.00 | 0.50 | 0.00 | 97 | 1011.5 |
| 20260510103012 | 49 | 283 | 0.0 | 2.0 | 0.00 | 0.52 | 0.00 | 97 | 1011.1 |
| 20260510101518 | 49 | 207 | 0.0 | 2.0 | 0.00 | 0.52 | 0.00 | 96 | 1011.0 |
| 20260510094522 | 48 | 32 | 0.0 | 2.0 | 0.00 | 0.52 | 0.00 | 96 | 1010.6 |
| 20260510093028 | 48 | 303 | 0.0 | 2.0 | 0.00 | 0.52 | 0.00 | 96 | 1010.3 |
| 20260510091512 | 48 | 286 | 0.0 | 2.0 | 0.00 | 0.52 | 0.00 | 96 | 1010.4 |
| 20260510090020 | 48 | 121 | 0.0 | 2.0 | 0.00 | 0.52 | 0.00 | 96 | 1010.2 |
| 20260510084523 | 48 | 121 | 0.0 | 0.0 | 0.00 | 0.52 | 0.00 | 96 | 1010.3 |
| 20260510083007 | 48 | 121 | 0.0 | 2.0 | 0.00 | 0.52 | 0.00 | 96 | 1010.8 |
| 20260510081516 | 48 | 121 | 0.0 | 2.0 | 0.00 | 0.52 | 0.00 | 96 | 1010.7 |
| 20260510080018 | 48 | 121 | 0.0 | 2.0 | 0.00 | 0.52 | 0.00 | 96 | 1010.9 |
| 20260510071509 | 48 | 121 | 0.0 | 0.0 | 0.00 | 0.52 | 0.00 | 96 | 1010.7 |
| 20260510070023 | 49 | 121 | 0.0 | 2.0 | 0.00 | 0.52 | 0.00 | 96 | 1010.4 |
| 20260510064523 | 49 | 121 | 0.0 | 0.0 | 0.00 | 0.52 | 0.00 | 96 | 1010.3 |
| 20260510063005 | 49 | 121 | 0.0 | 2.0 | 0.00 | 0.52 | 0.00 | 96 | 1010.4 |
| 20260510061506 | 49 | 12 | 0.0 | 2.0 | 0.00 | 0.52 | 0.00 | 96 | 1010.3 |
| 20260510060009 | 49 | 25 | 0.0 | 2.0 | 0.00 | 0.52 | 0.00 | 96 | 1010.6 |
| 20260510054521 | 49 | 315 | 0.0 | 0.0 | 0.00 | 0.52 | 0.00 | 96 | 1010.6 |
| 20260510053022 | 49 | 315 | 0.0 | 2.0 | 0.00 | 0.52 | 0.00 | 96 | 1010.8 |
| 20260510051509 | 49 | 5 | 0.0 | 2.0 | 0.00 | 0.52 | 0.00 | 96 | 1010.8 |
| 20260510050008 | 49 | 311 | 0.0 | 0.0 | 0.00 | 0.52 | 0.00 | 96 | 1010.8 |
| 20260510044519 | 49 | 311 | 0.0 | 2.0 | 0.00 | 0.52 | 0.00 | 96 | 1010.6 |
| 20260510043016 | 49 | 274 | 0.0 | 2.0 | 0.00 | 0.52 | 0.00 | 96 | 1010.9 |
| 20260510041523 | 49 | 327 | 0.0 | 2.0 | 0.00 | 0.52 | 0.00 | 96 | 1010.7 |
| 20260510040006 | 49 | 5 | 1.0 | 2.0 | 0.00 | 0.52 | 0.00 | 96 | 1010.7 |
| 20260510034513 | 49 | 57 | 0.0 | 2.0 | 0.00 | 0.52 | 0.52 | 96 | 1010.9 |
| 20260510033019 | 49 | 108 | 0.0 | 0.0 | 0.00 | 0.52 | 0.52 | 96 | 1010.9 |
| 20260510031522 | 49 | 108 | 0.0 | 0.0 | 0.00 | 0.52 | 0.52 | 96 | 1010.9 |
| 20260510030024 | 49 | 108 | 0.0 | 0.0 | 0.00 | 0.52 | 0.52 | 96 | 1011.0 |
| 20260510024509 | 49 | 108 | 0.0 | 2.0 | 0.00 | 0.52 | 0.52 | 96 | 1011.1 |
| 20260510023014 | 49 | 9 | 0.0 | 2.0 | 0.00 | 0.52 | 0.52 | 1011.0 | |
| 20260510021520 | 49 | 118 | 0.0 | 2.0 | 0.00 | 0.52 | 0.52 | 96 | 1010.9 |
| 20260510020022 | 49 | 138 | 0.0 | 2.0 | 0.00 | 0.52 | 0.52 | 95 | 1011.5 |
| 20260510014526 | 49 | 169 | 0.0 | 2.0 | 0.00 | 0.52 | 0.52 | 95 | 1011.6 |
| 20260510013010 | 49 | 161 | 0.0 | 1.0 | 0.00 | 0.52 | 0.52 | 95 | 1011.7 |
| 20260510011525 | 49 | 161 | 0.0 | 1.0 | 0.00 | 0.52 | 0.52 | 95 | 1011.4 |
| 20260510010033 | 49 | 306 | 0.0 | 1.0 | 0.00 | 0.52 | 0.52 | 95 | 1011.1 |
| 20260510004524 | 49 | 306 | 0.0 | 2.0 | 0.00 | 0.52 | 0.52 | 95 | 1011.0 |
| 20260510003027 | 49 | 5 | 0.0 | 2.0 | 0.00 | 0.52 | 0.52 | 95 | 1010.7 |
| 20260510001511 | 49 | 318 | 0.0 | 2.0 | 0.00 | 0.52 | 0.52 | 95 | 1010.6 |
| 20260510000020 | 49 | 298 | 0.0 | 2.0 | 0.00 | 0.52 | 0.52 | 95 | 1010.4 |
| 20260509234525 | 49 | 261 | 0.0 | 2.0 | 0.00 | 0.52 | 0.52 | 95 | 1010.4 |
| 20260509233026 | 49 | 25 | 1.0 | 2.0 | 0.00 | 0.52 | 0.52 | 95 | 1010.8 |
| 20260509230015 | 48 | 329 | 0.0 | 0.0 | 0.00 | 0.52 | 0.52 | 94 | 1010.7 |
| 20260509224521 | 48 | 5 | 0.0 | 0.0 | 0.00 | 0.52 | 0.52 | 94 | 1010.7 |
| 20260509223025 | 48 | 302 | 0.0 | 0.0 | 0.00 | 0.52 | 0.52 | 94 | 1010.7 |
| 20260509221525 | 48 | 298 | 0.0 | 0.0 | 0.00 | 0.52 | 0.52 | 94 | 1010.6 |
| 20260509220012 | 48 | 200 | 0.0 | 0.0 | 0.00 | 0.52 | 0.52 | 94 | 1010.5 |
| 20260509214517 | 47 | 308 | 0.0 | 0.0 | 0.01 | 0.52 | 0.52 | 94 | 1010.7 |
| 20260509213022 | 47 | 308 | 0.0 | 1.0 | 0.02 | 0.52 | 0.52 | 93 | 1010.8 |
| 20260509211527 | 47 | 304 | 0.0 | 0.0 | 0.03 | 0.52 | 0.52 | 93 | 1011.1 |
| 20260509210008 | 47 | 304 | 0.0 | 0.0 | 0.05 | 0.52 | 0.52 | 93 | 1011.3 |
| 20260509204514 | 47 | 304 | 0.0 | 0.0 | 0.06 | 0.52 | 0.52 | 93 | 1011.4 |
| 20260509203018 | 47 | 304 | 0.0 | 0.0 | 0.06 | 0.51 | 0.51 | 93 | 1011.6 |
| 20260509201524 | 47 | 304 | 0.0 | 0.0 | 0.07 | 0.50 | 0.50 | 92 | 1011.8 |
| 20260509200006 | 47 | 304 | 0.0 | 0.0 | 0.06 | 0.48 | 0.48 | 93 | 1011.8 |
| 20260509194516 | 47 | 304 | 0.0 | 0.0 | 0.06 | 0.46 | 0.46 | 93 | 1011.8 |
| 20260509193014 | 46 | 304 | 0.0 | 2.0 | 0.07 | 0.45 | 0.45 | 92 | 1011.7 |
| 20260509191522 | 46 | 349 | 0.0 | 2.0 | 0.06 | 0.43 | 0.43 | 92 | 1011.7 |
| 20260509190040 | 46 | 349 | 0.0 | 2.0 | 0.06 | 0.42 | 0.42 | 92 | 1011.9 |
| 20260509184521 | 46 | 349 | 0.0 | 2.0 | 0.05 | 0.40 | 0.40 | 92 | 1012.2 |
| 20260509183012 | 46 | 349 | 0.0 | 2.0 | 0.04 | 0.38 | 0.38 | 91 | 1012.2 |
| 20260509181521 | 45 | 349 | 0.0 | 2.0 | 0.05 | 0.37 | 0.37 | 92 | 1012.3 |
| 20260509180024 | 45 | 349 | 0.0 | 2.0 | 0.06 | 0.36 | 0.36 | 91 | 1012.3 |
| 20260509173015 | 45 | 307 | 1.0 | 1.0 | 0.07 | 0.34 | 0.34 | 92 | 1012.8 |
| 20260509171520 | 45 | 339 | 0.0 | 0.0 | 0.07 | 0.32 | 0.32 | 91 | 1012.9 |
| 20260509170029 | 45 | 340 | 0.0 | 0.0 | 0.07 | 0.30 | 0.30 | 91 | 1013.0 |
| 20260509164526 | 45 | 340 | 0.0 | 0.0 | 0.08 | 0.29 | 0.29 | 93 | 1013.2 |
| 20260509161516 | 44 | 340 | 0.0 | 2.0 | 0.06 | 0.25 | 0.25 | 93 | 1013.3 |